Precipitable_Water
0.23 0.12 0.09 0.08 0.09 0.12 0.12 0.12 0.13 0.14 0.14 0.13 0.13 0.11 0.11 0.11 0.12 0.16 0.16 0.19 0.23 0.22 0.22 0.23 0.24 0.25 0.27 0.28 0.29 0.29 0.29 0.29 0.29 0.28 0.28 0.28 0.28 0.29 0.29 0.30 0.31 0.32 0.33 0.37 0.39 0.42 0.44 0.46 0.48 0.48 0.46 0.45 0.44 0.44 0.43 0.41 0.41 0.42 0.43 0.44 0.44 0.48 0.49 0.49 0.49 0.52 0.54 0.56 0.60 0.68 0.72 0.73 0.80 0.82 0.85 0.88 0.91 0.93 0.94 0.96 0.96 0.94 0.90 0.89 0.91 0.89
0.19 0.10 0.08 0.11 0.12 0.13 0.14 0.15 0.15 0.14 0.14 0.13 0.11 0.11 0.10 0.12 0.10 0.16 0.15 0.19 0.22 0.19 0.17 0.20 0.20 0.21 0.25 0.29 0.31 0.35 0.35 0.32 0.31 0.30 0.29 0.28 0.28 0.28 0.28 0.28 0.29 0.30 0.32 0.34 0.34 0.36 0.38 0.40 0.42 0.45 0.45 0.43 0.41 0.40 0.40 0.39 0.38 0.39 0.39 0.40 0.42 0.45 0.45 0.46 0.46 0.47 0.48 0.51 0.53 0.54 0.57 0.64 0.71 0.75 0.78 0.79 0.85 0.86 0.89 0.92 0.94 0.91 0.92 0.90 0.90 0.93
0.10 0.06 0.09 0.13 0.14 0.15 0.15 0.15 0.16 0.14 0.13 0.14 0.12 0.11 0.11 0.11 0.13 0.16 0.15 0.18 0.19 0.16 0.12 0.15 0.16 0.16 0.19 0.22 0.25 0.27 0.29 0.32 0.34 0.35 0.34 0.35 0.34 0.33 0.32 0.32 0.32 0.32 0.32 0.33 0.32 0.33 0.34 0.35 0.37 0.39 0.42 0.44 0.43 0.40 0.40 0.40 0.39 0.39 0.39 0.40 0.41 0.42 0.43 0.43 0.44 0.44 0.44 0.46 0.50 0.53 0.56 0.62 0.61 0.71 0.75 0.76 0.79 0.82 0.77 0.83 0.88 0.88 0.88 0.88 0.90 0.94
0.04 0.05 0.08 0.12 0.14 0.14 0.14 0.15 0.15 0.14 0.15 0.12 0.12 0.10 0.08 0.12 0.11 0.08 0.14 0.16 0.17 0.16 0.13 0.15 0.16 0.15 0.17 0.19 0.18 0.19 0.20 0.21 0.25 0.29 0.33 0.35 0.35 0.36 0.36 0.37 0.37 0.36 0.36 0.35 0.35 0.34 0.33 0.34 0.34 0.35 0.36 0.38 0.42 0.43 0.41 0.41 0.41 0.41 0.41 0.41 0.41 0.42 0.43 0.44 0.45 0.44 0.43 0.44 0.45 0.48 0.50 0.56 0.59 0.58 0.67 0.74 0.80 0.84 0.83 0.80 0.85 0.88 0.87 0.89 0.89 0.91
0.05 0.09 0.12 0.12 0.13 0.13 0.12 0.14 0.13 0.12 0.10 0.13 0.12 0.11 0.10 0.11 0.12 0.11 0.12 0.15 0.17 0.17 0.17 0.15 0.14 0.11 0.11 0.12 0.13 0.15 0.17 0.18 0.18 0.20 0.21 0.25 0.30 0.34 0.37 0.38 0.39 0.38 0.38 0.37 0.36 0.36 0.36 0.35 0.35 0.36 0.36 0.36 0.37 0.40 0.42 0.42 0.41 0.41 0.41 0.42 0.43 0.44 0.44 0.45 0.46 0.46 0.45 0.44 0.42 0.43 0.48 0.52 0.56 0.63 0.65 0.67 0.70 0.78 0.78 0.78 0.79 0.80 0.87 0.88 0.90 0.92
0.08 0.10 0.13 0.11 0.12 0.12 0.12 0.11 0.12 0.12 0.09 0.11 0.13 0.13 0.12 0.13 0.13 0.13 0.15 0.14 0.11 0.10 0.15 0.16 0.09 0.06 0.08 0.11 0.12 0.14 0.17 0.16 0.19 0.20 0.20 0.21 0.23 0.26 0.28 0.30 0.34 0.36 0.38 0.38 0.38 0.38 0.38 0.38 0.37 0.36 0.37 0.37 0.37 0.37 0.40 0.43 0.44 0.44 0.42 0.43 0.44 0.44 0.46 0.46 0.47 0.48 0.47 0.46 0.43 0.40 0.38 0.38 0.41 0.43 0.51 0.51 0.55 0.62 0.71 0.70 0.75 0.78 0.84 0.87 0.89 0.91
0.08 0.13 0.11 0.10 0.12 0.12 0.11 0.10 0.12 0.12 0.08 0.07 0.08 0.12 0.13 0.12 0.12 0.13 0.12 0.13 0.09 0.06 0.15 0.18 0.08 0.04 0.07 0.10 0.09 0.12 0.13 0.13 0.16 0.17 0.17 0.18 0.20 0.21 0.23 0.25 0.28 0.31 0.34 0.38 0.39 0.40 0.39 0.40 0.39 0.38 0.37 0.36 0.35 0.36 0.38 0.38 0.41 0.44 0.44 0.43 0.42 0.42 0.43 0.45 0.47 0.49 0.50 0.49 0.48 0.46 0.42 0.39 0.37 0.37 0.42 0.51 0.55 0.60 0.65 0.75 0.71 0.72 0.76 0.81 0.82 0.82
0.12 0.12 0.13 0.13 0.12 0.11 0.11 0.08 0.10 0.10 0.09 0.07 0.13 0.13 0.12 0.12 0.12 0.11 0.11 0.11 0.09 0.13 0.15 0.16 0.11 0.07 0.05 0.08 0.11 0.11 0.09 0.11 0.13 0.15 0.17 0.19 0.19 0.19 0.21 0.24 0.25 0.27 0.29 0.32 0.35 0.37 0.39 0.40 0.40 0.40 0.40 0.39 0.37 0.36 0.36 0.36 0.36 0.36 0.39 0.42 0.43 0.42 0.41 0.42 0.44 0.45 0.48 0.47 0.49 0.49 0.48 0.46 0.43 0.42 0.41 0.48 0.54 0.58 0.60 0.65 0.69 0.72 0.75 0.76 0.79 0.77
0.11 0.11 0.12 0.11 0.11 0.10 0.08 0.09 0.13 0.12 0.10 0.10 0.14 0.15 0.13 0.14 0.14 0.15 0.13 0.12 0.13 0.13 0.09 0.11 0.13 0.08 0.06 0.10 0.12 0.11 0.09 0.12 0.10 0.11 0.14 0.15 0.17 0.20 0.22 0.23 0.26 0.27 0.28 0.29 0.31 0.33 0.36 0.38 0.40 0.42 0.42 0.42 0.41 0.40 0.38 0.36 0.36 0.36 0.37 0.37 0.39 0.41 0.42 0.41 0.40 0.40 0.42 0.45 0.46 0.48 0.48 0.48 0.49 0.49 0.50 0.51 0.55 0.54 0.57 0.56 0.59 0.66 0.71 0.73 0.75 0.77
0.12 0.12 0.14 0.14 0.12 0.08 0.12 0.14 0.14 0.13 0.10 0.14 0.17 0.18 0.17 0.18 0.16 0.16 0.13 0.13 0.12 0.11 0.06 0.07 0.11 0.07 0.05 0.08 0.12 0.11 0.09 0.08 0.08 0.10 0.11 0.14 0.20 0.21 0.21 0.22 0.23 0.24 0.25 0.27 0.29 0.31 0.34 0.37 0.40 0.42 0.43 0.43 0.43 0.43 0.42 0.40 0.39 0.37 0.38 0.37 0.37 0.37 0.40 0.41 0.41 0.40 0.39 0.41 0.43 0.44 0.46 0.47 0.48 0.51 0.53 0.55 0.54 0.54 0.53 0.53 0.55 0.61 0.64 0.67 0.71 0.72
0.12 0.18 0.19 0.15 0.11 0.12 0.14 0.15 0.16 0.16 0.15 0.19 0.20 0.16 0.15 0.13 0.13 0.14 0.13 0.12 0.10 0.06 0.05 0.06 0.12 0.10 0.05 0.05 0.07 0.07 0.08 0.08 0.11 0.10 0.12 0.17 0.18 0.18 0.18 0.19 0.21 0.23 0.25 0.26 0.28 0.30 0.32 0.35 0.38 0.41 0.40 0.41 0.42 0.43 0.43 0.42 0.41 0.39 0.38 0.38 0.37 0.38 0.39 0.40 0.41 0.42 0.40 0.40 0.41 0.41 0.42 0.44 0.45 0.47 0.50 0.52 0.54 0.55 0.56 0.51 0.51 0.54 0.56 0.62 0.64 0.67
0.11 0.12 0.12 0.12 0.16 0.15 0.16 0.13 0.18 0.17 0.18 0.17 0.14 0.12 0.11 0.11 0.12 0.11 0.10 0.12 0.06 0.04 0.04 0.07 0.10 0.12 0.05 0.04 0.07 0.10 0.12 0.10 0.09 0.10 0.13 0.14 0.15 0.17 0.19 0.20 0.20 0.23 0.24 0.25 0.27 0.29 0.30 0.31 0.34 0.36 0.37 0.39 0.40 0.41 0.42 0.42 0.42 0.41 0.39 0.39 0.37 0.38 0.39 0.40 0.40 0.40 0.40 0.41 0.42 0.42 0.42 0.43 0.44 0.45 0.46 0.47 0.49 0.53 0.56 0.54 0.51 0.53 0.54 0.56 0.59 0.62
0.07 0.07 0.10 0.12 0.15 0.13 0.12 0.11 0.13 0.17 0.17 0.15 0.13 0.12 0.08 0.05 0.07 0.04 0.07 0.05 0.05 0.03 0.07 0.08 0.11 0.10 0.08 0.05 0.05 0.10 0.11 0.13 0.12 0.14 0.16 0.16 0.17 0.17 0.17 0.17 0.18 0.20 0.22 0.24 0.25 0.27 0.28 0.29 0.30 0.32 0.34 0.36 0.37 0.39 0.40 0.41 0.42 0.42 0.40 0.39 0.38 0.37 0.40 0.40 0.40 0.40 0.40 0.40 0.40 0.42 0.42 0.42 0.44 0.45 0.45 0.45 0.46 0.50 0.53 0.55 0.55 0.55 0.52 0.53 0.54 0.56
0.05 0.07 0.08 0.09 0.13 0.15 0.13 0.07 0.08 0.10 0.13 0.13 0.11 0.10 0.07 0.04 0.04 0.02 0.03 0.06 0.06 0.07 0.09 0.10 0.14 0.08 0.08 0.09 0.11 0.13 0.14 0.17 0.18 0.18 0.19 0.19 0.19 0.18 0.19 0.19 0.18 0.18 0.18 0.19 0.21 0.23 0.24 0.25 0.27 0.31 0.33 0.34 0.36 0.38 0.39 0.41 0.41 0.41 0.41 0.40 0.39 0.38 0.40 0.41 0.40 0.40 0.39 0.39 0.40 0.41 0.42 0.42 0.43 0.43 0.44 0.45 0.46 0.48 0.51 0.54 0.55 0.55 0.54 0.52 0.50 0.50
0.04 0.04 0.05 0.07 0.05 0.14 0.13 0.09 0.10 0.09 0.10 0.11 0.13 0.12 0.06 0.05 0.03 0.02 0.03 0.03 0.03 0.03 0.11 0.14 0.12 0.09 0.06 0.07 0.12 0.15 0.15 0.16 0.20 0.20 0.20 0.20 0.21 0.21 0.21 0.21 0.21 0.21 0.20 0.21 0.21 0.22 0.23 0.24 0.27 0.29 0.31 0.34 0.35 0.37 0.38 0.40 0.40 0.41 0.40 0.40 0.39 0.39 0.40 0.40 0.41 0.40 0.39 0.38 0.39 0.40 0.41 0.42 0.42 0.42 0.43 0.43 0.45 0.47 0.48 0.51 0.52 0.54 0.57 0.56 0.54 0.53
0.05 0.05 0.06 0.10 0.11 0.16 0.11 0.14 0.15 0.12 0.11 0.13 0.14 0.14 0.10 0.06 0.07 0.04 0.05 0.06 0.05 0.04 0.05 0.08 0.09 0.10 0.08 0.14 0.13 0.15 0.15 0.15 0.17 0.17 0.16 0.17 0.18 0.19 0.19 0.20 0.20 0.20 0.20 0.20 0.21 0.21 0.22 0.24 0.26 0.27 0.29 0.32 0.34 0.36 0.37 0.38 0.39 0.40 0.40 0.40 0.39 0.39 0.40 0.41 0.41 0.41 0.40 0.39 0.39 0.40 0.40 0.40 0.41 0.42 0.43 0.43 0.44 0.46 0.48 0.49 0.49 0.49 0.53 0.57 0.58 0.59
0.07 0.05 0.09 0.09 0.11 0.14 0.15 0.17 0.15 0.15 0.05 0.11 0.12 0.09 0.08 0.15 0.11 0.07 0.07 0.08 0.07 0.07 0.05 0.08 0.08 0.09 0.10 0.12 0.12 0.12 0.12 0.12 0.14 0.15 0.14 0.15 0.16 0.16 0.17 0.17 0.17 0.18 0.19 0.19 0.19 0.19 0.20 0.23 0.25 0.26 0.28 0.30 0.33 0.34 0.35 0.36 0.37 0.38 0.39 0.39 0.39 0.39 0.41 0.41 0.42 0.42 0.42 0.41 0.39 0.39 0.41 0.41 0.41 0.41 0.40 0.40 0.42 0.43 0.45 0.47 0.49 0.48 0.50 0.55 0.56 0.57
0.06 0.06 0.10 0.09 0.08 0.13 0.17 0.17 0.17 0.17 0.14 0.16 0.10 0.11 0.19 0.20 0.17 0.12 0.06 0.08 0.08 0.06 0.05 0.08 0.06 0.06 0.07 0.05 0.12 0.12 0.12 0.12 0.13 0.15 0.16 0.16 0.17 0.16 0.17 0.18 0.18 0.19 0.19 0.19 0.18 0.19 0.19 0.20 0.22 0.25 0.27 0.29 0.32 0.34 0.34 0.35 0.37 0.38 0.39 0.39 0.38 0.39 0.39 0.41 0.42 0.42 0.43 0.42 0.40 0.39 0.40 0.41 0.41 0.41 0.41 0.41 0.41 0.43 0.43 0.45 0.47 0.47 0.47 0.50 0.54 0.54
0.09 0.06 0.07 0.09 0.10 0.12 0.16 0.15 0.13 0.16 0.17 0.12 0.12 0.19 0.11 0.07 0.08 0.12 0.10 0.05 0.04 0.04 0.05 0.07 0.07 0.08 0.09 0.07 0.12 0.12 0.11 0.11 0.13 0.15 0.16 0.16 0.15 0.16 0.16 0.17 0.18 0.19 0.19 0.19 0.19 0.19 0.19 0.19 0.20 0.22 0.24 0.27 0.29 0.32 0.33 0.35 0.36 0.37 0.38 0.39 0.39 0.38 0.40 0.41 0.42 0.43 0.44 0.45 0.43 0.42 0.41 0.42 0.42 0.41 0.41 0.42 0.42 0.43 0.42 0.41 0.43 0.45 0.45 0.47 0.51 0.52
0.11 0.06 0.07 0.09 0.09 0.11 0.12 0.12 0.07 0.09 0.15 0.16 0.15 0.13 0.15 0.10 0.08 0.08 0.10 0.08 0.07 0.05 0.05 0.04 0.06 0.04 0.06 0.07 0.11 0.10 0.12 0.13 0.14 0.14 0.16 0.16 0.16 0.16 0.16 0.17 0.17 0.18 0.18 0.19 0.18 0.18 0.19 0.20 0.21 0.22 0.23 0.24 0.27 0.29 0.31 0.33 0.34 0.34 0.36 0.38 0.39 0.39 0.40 0.41 0.42 0.43 0.43 0.45 0.45 0.44 0.43 0.43 0.43 0.43 0.42 0.41 0.42 0.41 0.40 0.41 0.42 0.44 0.44 0.44 0.46 0.49
0.09 0.11 0.05 0.09 0.11 0.10 0.07 0.10 0.07 0.09 0.08 0.10 0.12 0.10 0.11 0.10 0.12 0.12 0.11 0.10 0.07 0.05 0.05 0.04 0.04 0.06 0.07 0.10 0.08 0.09 0.10 0.12 0.13 0.14 0.15 0.16 0.17 0.17 0.17 0.18 0.18 0.18 0.18 0.18 0.19 0.18 0.19 0.19 0.21 0.23 0.24 0.25 0.28 0.31 0.33 0.33 0.34 0.34 0.35 0.35 0.37 0.37 0.38 0.39 0.41 0.42 0.43 0.45 0.45 0.45 0.43 0.42 0.43 0.43 0.42 0.42 0.42 0.41 0.41 0.41 0.42 0.43 0.44 0.45 0.44 0.45
0.10 0.10 0.07 0.08 0.08 0.07 0.07 0.11 0.10 0.10 0.11 0.10 0.10 0.08 0.08 0.08 0.07 0.06 0.05 0.09 0.09 0.08 0.05 0.05 0.04 0.06 0.12 0.14 0.13 0.12 0.13 0.14 0.16 0.16 0.17 0.18 0.19 0.19 0.19 0.19 0.19 0.18 0.19 0.19 0.19 0.19 0.19 0.19 0.20 0.22 0.25 0.27 0.28 0.29 0.32 0.33 0.34 0.33 0.33 0.34 0.35 0.37 0.37 0.38 0.40 0.42 0.43 0.44 0.46 0.45 0.45 0.44 0.43 0.44 0.43 0.41 0.42 0.42 0.42 0.41 0.41 0.42 0.44 0.43 0.43 0.44
0.12 0.11 0.10 0.07 0.07 0.08 0.09 0.11 0.12 0.12 0.11 0.10 0.10 0.09 0.10 0.10 0.09 0.07 0.05 0.05 0.08 0.08 0.09 0.09 0.07 0.06 0.12 0.13 0.13 0.13 0.14 0.15 0.16 0.18 0.18 0.18 0.19 0.19 0.20 0.20 0.20 0.20 0.20 0.20 0.20 0.20 0.19 0.19 0.19 0.21 0.23 0.25 0.27 0.28 0.30 0.32 0.34 0.34 0.34 0.34 0.34 0.35 0.36 0.38 0.40 0.43 0.44 0.44 0.45 0.46 0.47 0.46 0.44 0.44 0.43 0.41 0.41 0.41 0.42 0.42 0.42 0.42 0.41 0.42 0.44 0.44
0.14 0.10 0.08 0.08 0.10 0.11 0.12 0.12 0.12 0.12 0.11 0.09 0.09 0.10 0.09 0.08 0.09 0.08 0.08 0.08 0.07 0.07 0.06 0.06 0.05 0.05 0.09 0.12 0.11 0.12 0.13 0.14 0.16 0.18 0.18 0.18 0.19 0.19 0.19 0.20 0.20 0.20 0.20 0.20 0.20 0.20 0.20 0.19 0.20 0.21 0.22 0.23 0.24 0.26 0.28 0.29 0.31 0.33 0.34 0.35 0.34 0.34 0.36 0.37 0.39 0.42 0.44 0.44 0.45 0.47 0.47 0.47 0.46 0.45 0.44 0.43 0.42 0.42 0.43 0.44 0.43 0.43 0.41 0.41 0.43 0.43
0.10 0.11 0.09 0.07 0.07 0.08 0.09 0.10 0.10 0.11 0.11 0.09 0.08 0.09 0.09 0.09 0.09 0.09 0.09 0.09 0.07 0.06 0.05 0.05 0.04 0.05 0.08 0.12 0.12 0.13 0.13 0.13 0.14 0.15 0.17 0.17 0.17 0.17 0.18 0.18 0.18 0.17 0.17 0.19 0.19 0.19 0.19 0.18 0.19 0.20 0.22 0.23 0.24 0.25 0.27 0.28 0.29 0.31 0.33 0.35 0.35 0.34 0.36 0.37 0.38 0.40 0.43 0.45 0.45 0.46 0.46 0.47 0.48 0.46 0.45 0.44 0.44 0.43 0.44 0.45 0.45 0.44 0.42 0.42 0.42 0.43
0.13 0.11 0.10 0.07 0.05 0.05 0.04 0.04 0.05 0.06 0.07 0.09 0.10 0.09 0.10 0.09 0.09 0.09 0.07 0.08 0.06 0.07 0.07 0.06 0.05 0.05 0.06 0.07 0.10 0.11 0.12 0.12 0.12 0.12 0.12 0.11 0.11 0.11 0.12 0.13 0.13 0.14 0.16 0.17 0.18 0.18 0.18 0.18 0.19 0.20 0.22 0.24 0.24 0.25 0.27 0.28 0.29 0.31 0.33 0.34 0.36 0.35 0.34 0.36 0.38 0.38 0.40 0.43 0.45 0.45 0.46 0.46 0.47 0.47 0.47 0.46 0.45 0.45 0.45 0.45 0.46 0.46 0.45 0.44 0.42 0.44
0.14 0.14 0.12 0.10 0.08 0.06 0.07 0.07 0.08 0.08 0.08 0.07 0.08 0.08 0.08 0.09 0.10 0.09 0.09 0.07 0.06 0.06 0.06 0.06 0.06 0.06 0.06 0.06 0.06 0.07 0.07 0.06 0.06 0.06 0.06 0.08 0.08 0.08 0.08 0.08 0.08 0.09 0.11 0.13 0.15 0.16 0.16 0.17 0.17 0.20 0.23 0.24 0.25 0.26 0.28 0.28 0.29 0.31 0.32 0.34 0.35 0.36 0.35 0.36 0.37 0.38 0.38 0.39 0.42 0.44 0.46 0.46 0.46 0.47 0.49 0.49 0.47 0.47 0.47 0.46 0.46 0.46 0.46 0.46 0.45 0.44
0.15 0.12 0.13 0.13 0.12 0.11 0.10 0.10 0.09 0.10 0.09 0.08 0.08 0.08 0.09 0.09 0.09 0.09 0.08 0.06 0.07 0.06 0.05 0.07 0.08 0.06 0.06 0.06 0.07 0.07 0.07 0.07 0.07 0.07 0.07 0.08 0.08 0.08 0.08 0.08 0.07 0.06 0.08 0.10 0.11 0.12 0.13 0.14 0.17 0.20 0.23 0.24 0.26 0.28 0.29 0.30 0.31 0.31 0.32 0.33 0.35 0.36 0.36 0.36 0.36 0.38 0.37 0.38 0.38 0.41 0.44 0.46 0.48 0.48 0.49 0.50 0.50 0.49 0.48 0.47 0.47 0.47 0.48 0.47 0.45 0.45
0.14 0.11 0.13 0.13 0.12 0.13 0.13 0.13 0.13 0.12 0.11 0.10 0.10 0.10 0.09 0.10 0.10 0.09 0.09 0.09 0.08 0.07 0.05 0.07 0.07 0.06 0.06 0.07 0.07 0.07 0.08 0.07 0.07 0.08 0.09 0.09 0.09 0.08 0.09 0.08 0.06 0.05 0.06 0.06 0.08 0.09 0.11 0.12 0.16 0.20 0.24 0.27 0.28 0.29 0.29 0.29 0.31 0.32 0.32 0.33 0.35 0.36 0.36 0.36 0.36 0.37 0.37 0.37 0.37 0.38 0.41 0.45 0.47 0.49 0.49 0.49 0.50 0.50 0.49 0.48 0.48 0.48 0.48 0.47 0.46 0.46
0.15 0.12 0.13 0.13 0.12 0.12 0.13 0.13 0.14 0.13 0.13 0.12 0.11 0.11 0.11 0.10 0.10 0.10 0.10 0.10 0.10 0.09 0.09 0.09 0.08 0.08 0.08 0.07 0.07 0.07 0.08 0.08 0.09 0.10 0.10 0.09 0.09 0.09 0.09 0.07 0.05 0.05 0.05 0.05 0.05 0.07 0.09 0.13 0.18 0.22 0.26 0.27 0.27 0.27 0.27 0.28 0.29 0.32 0.32 0.32 0.34 0.36 0.36 0.36 0.36 0.36 0.37 0.37 0.37 0.38 0.38 0.41 0.45 0.47 0.48 0.49 0.49 0.50 0.51 0.50 0.50 0.49 0.48 0.48 0.48 0.47
0.14 0.10 0.12 0.12 0.10 0.10 0.12 0.12 0.12 0.12 0.12 0.12 0.12 0.12 0.12 0.12 0.11 0.11 0.11 0.11 0.11 0.10 0.11 0.10 0.09 0.08 0.09 0.09 0.08 0.09 0.10 0.10 0.09 0.09 0.09 0.09 0.09 0.10 0.09 0.06 0.05 0.05 0.05 0.05 0.05 0.06 0.08 0.14 0.20 0.22 0.24 0.26 0.26 0.26 0.27 0.28 0.30 0.31 0.33 0.33 0.33 0.34 0.36 0.37 0.37 0.37 0.37 0.38 0.38 0.39 0.39 0.38 0.41 0.44 0.46 0.48 0.49 0.50 0.50 0.51 0.51 0.51 0.50 0.49 0.49 0.48
0.12 0.10 0.11 0.11 0.08 0.08 0.10 0.10 0.10 0.11 0.11 0.11 0.11 0.12 0.12 0.12 0.11 0.11 0.10 0.11 0.10 0.09 0.09 0.09 0.09 0.09 0.10 0.10 0.10 0.10 0.11 0.10 0.09 0.09 0.09 0.10 0.10 0.11 0.09 0.06 0.05 0.05 0.05 0.05 0.06 0.07 0.10 0.14 0.16 0.17 0.20 0.22 0.24 0.26 0.28 0.28 0.29 0.31 0.32 0.33 0.33 0.34 0.35 0.36 0.37 0.38 0.37 0.39 0.39 0.39 0.39 0.38 0.38 0.40 0.43 0.46 0.47 0.49 0.50 0.51 0.51 0.51 0.51 0.50 0.49 0.49
0.11 0.10 0.09 0.09 0.07 0.07 0.09 0.09 0.09 0.09 0.09 0.08 0.08 0.10 0.11 0.12 0.12 0.12 0.12 0.12 0.12 0.12 0.10 0.09 0.10 0.11 0.11 0.11 0.10 0.12 0.12 0.11 0.10 0.09 0.10 0.11 0.11 0.12 0.11 0.08 0.06 0.05 0.05 0.06 0.07 0.10 0.13 0.15 0.15 0.16 0.16 0.18 0.21 0.24 0.27 0.28 0.28 0.29 0.31 0.32 0.34 0.34 0.34 0.34 0.36 0.38 0.39 0.39 0.40 0.39 0.40 0.40 0.38 0.37 0.39 0.42 0.46 0.48 0.49 0.49 0.50 0.50 0.51 0.51 0.52 0.51
0.12 0.11 0.09 0.09 0.07 0.07 0.08 0.08 0.08 0.07 0.05 0.05 0.09 0.10 0.11 0.09 0.10 0.10 0.10 0.11 0.12 0.12 0.11 0.12 0.12 0.12 0.12 0.12 0.11 0.10 0.10 0.10 0.09 0.10 0.12 0.12 0.12 0.12 0.12 0.11 0.08 0.05 0.05 0.06 0.09 0.13 0.16 0.16 0.16 0.16 0.16 0.17 0.19 0.22 0.26 0.27 0.27 0.29 0.31 0.32 0.33 0.33 0.33 0.34 0.34 0.37 0.40 0.40 0.40 0.40 0.40 0.40 0.39 0.37 0.37 0.38 0.42 0.46 0.48 0.48 0.48 0.50 0.52 0.53 0.54 0.52
0.11 0.10 0.09 0.10 0.07 0.06 0.07 0.07 0.06 0.05 0.05 0.08 0.10 0.10 0.10 0.10 0.11 0.10 0.10 0.11 0.11 0.12 0.12 0.12 0.12 0.12 0.12 0.11 0.10 0.10 0.10 0.11 0.11 0.11 0.11 0.12 0.12 0.12 0.11 0.11 0.09 0.07 0.06 0.07 0.10 0.14 0.16 0.16 0.16 0.15 0.16 0.16 0.17 0.19 0.20 0.23 0.26 0.27 0.28 0.29 0.30 0.32 0.33 0.33 0.34 0.35 0.38 0.41 0.41 0.41 0.41 0.40 0.40 0.39 0.38 0.37 0.38 0.41 0.45 0.47 0.48 0.49 0.50 0.52 0.53 0.53
0.09 0.09 0.09 0.09 0.08 0.08 0.07 0.06 0.04 0.04 0.08 0.09 0.09 0.09 0.09 0.09 0.09 0.09 0.09 0.10 0.11 0.11 0.11 0.11 0.11 0.11 0.11 0.10 0.10 0.11 0.11 0.11 0.12 0.11 0.11 0.11 0.12 0.11 0.11 0.10 0.09 0.07 0.07 0.08 0.11 0.15 0.16 0.16 0.15 0.15 0.15 0.17 0.17 0.17 0.17 0.18 0.22 0.24 0.25 0.28 0.29 0.31 0.32 0.32 0.33 0.34 0.36 0.39 0.42 0.42 0.42 0.41 0.40 0.40 0.39 0.37 0.37 0.37 0.40 0.44 0.47 0.47 0.49 0.49 0.51 0.54
0.10 0.09 0.09 0.07 0.07 0.05 0.06 0.06 0.05 0.07 0.07 0.07 0.08 0.09 0.09 0.08 0.08 0.08 0.07 0.08 0.09 0.10 0.10 0.10 0.10 0.11 0.10 0.10 0.10 0.10 0.11 0.11 0.11 0.10 0.10 0.11 0.11 0.11 0.11 0.09 0.09 0.08 0.08 0.10 0.13 0.16 0.18 0.17 0.16 0.15 0.16 0.16 0.16 0.15 0.15 0.16 0.19 0.22 0.23 0.25 0.27 0.28 0.30 0.30 0.31 0.33 0.34 0.37 0.41 0.43 0.44 0.43 0.41 0.41 0.40 0.39 0.37 0.36 0.36 0.39 0.43 0.47 0.49 0.48 0.48 0.50
0.11 0.09 0.09 0.07 0.07 0.07 0.05 0.04 0.04 0.05 0.04 0.05 0.07 0.08 0.10 0.10 0.09 0.09 0.08 0.06 0.08 0.08 0.10 0.11 0.11 0.11 0.10 0.10 0.09 0.10 0.11 0.10 0.09 0.08 0.08 0.10 0.11 0.11 0.10 0.09 0.08 0.08 0.10 0.12 0.16 0.17 0.17 0.16 0.16 0.16 0.16 0.15 0.15 0.14 0.15 0.15 0.16 0.19 0.21 0.22 0.24 0.26 0.27 0.28 0.30 0.32 0.33 0.35 0.39 0.43 0.45 0.45 0.44 0.42 0.42 0.41 0.39 0.37 0.36 0.37 0.40 0.44 0.48 0.47 0.47 0.47
0.10 0.10 0.08 0.07 0.06 0.06 0.06 0.05 0.04 0.04 0.05 0.06 0.07 0.09 0.09 0.09 0.09 0.09 0.08 0.06 0.08 0.08 0.08 0.09 0.09 0.10 0.09 0.09 0.09 0.10 0.09 0.08 0.07 0.08 0.08 0.10 0.10 0.10 0.09 0.08 0.08 0.10 0.12 0.15 0.16 0.16 0.16 0.16 0.16 0.16 0.15 0.14 0.12 0.14 0.14 0.14 0.15 0.17 0.18 0.20 0.22 0.24 0.24 0.26 0.28 0.30 0.31 0.34 0.37 0.41 0.44 0.46 0.45 0.44 0.43 0.42 0.41 0.40 0.38 0.37 0.38 0.41 0.45 0.47 0.48 0.48
0.08 0.09 0.09 0.07 0.06 0.06 0.06 0.05 0.04 0.04 0.04 0.06 0.07 0.09 0.10 0.10 0.10 0.09 0.06 0.06 0.08 0.09 0.08 0.08 0.08 0.08 0.08 0.08 0.09 0.09 0.09 0.08 0.07 0.08 0.09 0.10 0.11 0.10 0.09 0.08 0.10 0.12 0.15 0.16 0.17 0.17 0.16 0.17 0.16 0.15 0.14 0.13 0.13 0.14 0.13 0.13 0.14 0.15 0.16 0.17 0.19 0.21 0.22 0.24 0.26 0.28 0.30 0.32 0.34 0.38 0.42 0.45 0.45 0.45 0.44 0.43 0.42 0.41 0.41 0.40 0.39 0.40 0.41 0.43 0.46 0.48
0.06 0.07 0.08 0.06 0.07 0.07 0.06 0.06 0.06 0.06 0.07 0.07 0.07 0.08 0.10 0.12 0.11 0.07 0.05 0.06 0.09 0.09 0.08 0.07 0.07 0.07 0.07 0.09 0.09 0.09 0.09 0.09 0.10 0.10 0.11 0.11 0.10 0.10 0.10 0.11 0.12 0.14 0.15 0.16 0.17 0.17 0.16 0.16 0.16 0.15 0.14 0.14 0.14 0.14 0.14 0.13 0.13 0.13 0.15 0.15 0.17 0.18 0.21 0.23 0.25 0.26 0.27 0.29 0.32 0.35 0.38 0.43 0.45 0.45 0.45 0.45 0.43 0.43 0.42 0.42 0.41 0.40 0.40 0.41 0.43 0.45
0.05 0.06 0.06 0.06 0.06 0.06 0.05 0.04 0.04 0.04 0.06 0.07 0.09 0.11 0.12 0.10 0.07 0.06 0.09 0.10 0.10 0.09 0.07 0.07 0.07 0.08 0.09 0.10 0.10 0.10 0.10 0.11 0.12 0.11 0.11 0.10 0.10 0.10 0.11 0.13 0.15 0.17 0.17 0.18 0.17 0.17 0.16 0.16 0.16 0.16 0.15 0.14 0.14 0.14 0.14 0.13 0.12 0.12 0.14 0.14 0.15 0.17 0.20 0.22 0.23 0.24 0.25 0.26 0.29 0.32 0.35 0.39 0.43 0.45 0.45 0.46 0.45 0.43 0.42 0.43 0.43 0.41 0.40 0.41 0.41 0.41
0.05 0.05 0.04 0.05 0.06 0.06 0.05 0.05 0.04 0.03 0.09 0.10 0.11 0.11 0.12 0.09 0.09 0.11 0.11 0.11 0.11 0.10 0.10 0.09 0.09 0.09 0.10 0.10 0.11 0.11 0.11 0.11 0.11 0.11 0.11 0.11 0.10 0.11 0.13 0.14 0.15 0.15 0.16 0.16 0.15 0.16 0.16 0.16 0.16 0.16 0.15 0.14 0.14 0.14 0.14 0.13 0.12 0.12 0.13 0.13 0.15 0.17 0.18 0.19 0.21 0.22 0.23 0.25 0.26 0.30 0.33 0.36 0.40 0.43 0.45 0.45 0.46 0.44 0.43 0.43 0.43 0.42 0.41 0.40 0.40 0.40
0.07 0.05 0.05 0.05 0.05 0.04 0.04 0.04 0.04 0.06 0.09 0.12 0.12 0.08 0.12 0.12 0.15 0.15 0.13 0.12 0.12 0.12 0.11 0.11 0.11 0.11 0.11 0.11 0.11 0.11 0.11 0.10 0.10 0.11 0.12 0.11 0.11 0.13 0.15 0.16 0.17 0.17 0.17 0.16 0.16 0.16 0.16 0.16 0.16 0.16 0.15 0.14 0.14 0.13 0.13 0.13 0.12 0.12 0.12 0.13 0.15 0.16 0.17 0.17 0.19 0.20 0.22 0.23 0.25 0.27 0.31 0.34 0.38 0.41 0.43 0.45 0.46 0.46 0.44 0.43 0.43 0.43 0.42 0.40 0.40 0.39
0.07 0.06 0.06 0.04 0.05 0.05 0.04 0.05 0.08 0.08 0.10 0.12 0.14 0.14 0.14 0.14 0.14 0.15 0.15 0.14 0.13 0.13 0.13 0.12 0.12 0.13 0.13 0.12 0.11 0.11 0.10 0.10 0.10 0.11 0.11 0.12 0.12 0.14 0.16 0.17 0.17 0.17 0.16 0.16 0.16 0.17 0.17 0.16 0.15 0.15 0.15 0.14 0.14 0.13 0.13 0.13 0.12 0.12 0.11 0.13 0.14 0.15 0.16 0.16 0.17 0.18 0.20 0.22 0.23 0.25 0.28 0.32 0.35 0.38 0.41 0.43 0.45 0.46 0.45 0.44 0.44 0.42 0.43 0.41 0.39 0.39
0.09 0.08 0.08 0.07 0.06 0.07 0.08 0.08 0.09 0.10 0.11 0.12 0.13 0.14 0.13 0.14 0.15 0.16 0.16 0.15 0.15 0.15 0.16 0.14 0.15 0.15 0.14 0.13 0.12 0.11 0.10 0.10 0.10 0.10 0.11 0.12 0.13 0.15 0.17 0.17 0.17 0.17 0.17 0.17 0.17 0.17 0.16 0.16 0.16 0.15 0.14 0.13 0.13 0.13 0.13 0.13 0.13 0.12 0.12 0.13 0.13 0.14 0.15 0.16 0.16 0.17 0.18 0.20 0.22 0.23 0.26 0.28 0.32 0.36 0.39 0.41 0.44 0.46 0.47 0.46 0.44 0.43 0.43 0.43 0.40 0.38
0.07 0.08 0.07 0.06 0.08 0.06 0.05 0.09 0.09 0.10 0.10 0.10 0.10 0.12 0.13 0.14 0.14 0.15 0.16 0.16 0.17 0.16 0.17 0.16 0.15 0.15 0.14 0.13 0.14 0.13 0.12 0.11 0.10 0.11 0.11 0.12 0.13 0.15 0.17 0.17 0.17 0.17 0.17 0.16 0.16 0.16 0.16 0.16 0.15 0.14 0.13 0.12 0.13 0.13 0.12 0.12 0.12 0.12 0.12 0.12 0.13 0.14 0.15 0.15 0.15 0.16 0.17 0.18 0.20 0.22 0.23 0.25 0.29 0.32 0.35 0.38 0.41 0.43 0.46 0.47 0.46 0.45 0.44 0.44 0.42 0.39
0.06 0.08 0.07 0.08 0.08 0.07 0.07 0.09 0.09 0.09 0.10 0.10 0.09 0.09 0.09 0.11 0.12 0.14 0.16 0.17 0.17 0.18 0.19 0.18 0.17 0.15 0.15 0.15 0.16 0.14 0.12 0.11 0.11 0.11 0.12 0.13 0.14 0.16 0.17 0.18 0.17 0.17 0.17 0.17 0.16 0.16 0.16 0.16 0.15 0.14 0.13 0.12 0.13 0.13 0.12 0.12 0.12 0.12 0.12 0.12 0.12 0.12 0.13 0.15 0.15 0.15 0.15 0.17 0.19 0.20 0.22 0.23 0.26 0.30 0.32 0.35 0.38 0.40 0.43 0.46 0.47 0.45 0.44 0.44 0.44 0.41
0.07 0.07 0.06 0.07 0.07 0.08 0.09 0.09 0.08 0.08 0.08 0.08 0.08 0.09 0.10 0.11 0.12 0.14 0.15 0.16 0.17 0.17 0.18 0.19 0.19 0.17 0.17 0.17 0.18 0.16 0.13 0.13 0.13 0.13 0.13 0.14 0.16 0.18 0.18 0.18 0.17 0.16 0.16 0.16 0.16 0.16 0.15 0.15 0.14 0.14 0.13 0.12 0.13 0.13 0.13 0.13 0.13 0.13 0.12 0.12 0.12 0.12 0.12 0.12 0.14 0.15 0.15 0.16 0.17 0.18 0.21 0.22 0.24 0.27 0.30 0.32 0.35 0.38 0.41 0.43 0.46 0.46 0.46 0.48 0.48 0.46
0.07 0.06 0.07 0.07 0.05 0.05 0.05 0.06 0.06 0.05 0.04 0.06 0.08 0.09 0.10 0.12 0.13 0.14 0.15 0.16 0.16 0.17 0.17 0.18 0.19 0.19 0.19 0.19 0.19 0.17 0.15 0.14 0.15 0.15 0.15 0.16 0.17 0.18 0.17 0.17 0.16 0.16 0.16 0.16 0.16 0.16 0.16 0.16 0.15 0.14 0.14 0.14 0.13 0.13 0.13 0.13 0.13 0.13 0.12 0.12 0.12 0.12 0.11 0.12 0.12 0.12 0.13 0.14 0.15 0.16 0.18 0.20 0.23 0.25 0.28 0.31 0.32 0.34 0.38 0.43 0.46 0.48 0.48 0.47 0.49 0.50
0.06 0.05 0.06 0.05 0.05 0.05 0.06 0.06 0.06 0.06 0.06 0.07 0.07 0.08 0.10 0.12 0.13 0.13 0.14 0.15 0.15 0.16 0.17 0.17 0.18 0.18 0.19 0.19 0.18 0.16 0.16 0.16 0.16 0.17 0.17 0.17 0.17 0.17 0.16 0.16 0.16 0.15 0.15 0.15 0.15 0.15 0.15 0.16 0.16 0.15 0.14 0.13 0.13 0.12 0.12 0.12 0.12 0.12 0.12 0.12 0.12 0.12 0.11 0.11 0.12 0.12 0.12 0.13 0.13 0.14 0.16 0.19 0.21 0.23 0.25 0.28 0.31 0.32 0.34 0.37 0.43 0.47 0.50 0.50 0.49 0.49
Wind_Speed
19 20 21 22 22 23 24 25 27 27 27 29 30 32 34 34 35 35 36 37 37 40 43 45 46 47 47 46 45 44 44 45 46 45 45 45 44 44 44 45 45 46 46 45 46 46 47 48 49 50 51 51 51 51 52 52 53 53 53 53 53 53 52 52 52 52 52 51 51 50 50 50 49 48 47 46 46 45 44 43 43 42 41 40 38 37
19 21 21 22 22 23 24 24 26 26 27 29 30 31 33 33 34 34 34 36 37 40 44 45 47 49 48 48 47 46 46 47 47 47 47 47 47 46 46 46 46 46 47 46 47 47 48 49 49 50 51 52 53 53 53 53 54 54 54 54 55 54 54 54 54 54 54 54 53 52 52 51 51 50 50 50 49 48 47 47 46 45 43 42 40 39
20 21 21 21 22 23 23 24 25 26 27 28 29 30 31 31 32 32 32 34 35 38 42 43 45 48 48 48 49 49 49 50 49 49 49 49 49 48 48 47 47 47 47 47 48 48 48 49 49 49 50 51 52 53 53 54 54 54 55 55 55 55 56 56 56 56 56 55 55 55 54 53 53 53 52 52 51 51 51 49 48 47 45 44 42 41
20 20 19 20 21 22 24 24 24 26 27 28 28 29 30 29 29 31 31 31 33 36 39 41 43 47 48 48 50 50 51 51 51 51 52 51 51 50 49 49 48 48 48 49 49 48 48 48 48 49 49 50 50 51 52 53 54 54 55 56 56 56 56 56 57 57 57 57 57 57 56 55 54 54 53 53 53 53 52 51 50 49 47 46 44 44
22 20 18 19 20 22 24 24 24 26 27 28 29 30 30 30 31 32 32 32 34 36 39 40 41 45 46 45 47 47 48 50 50 50 51 51 51 51 51 51 51 51 50 50 50 49 48 48 48 48 49 49 50 51 51 52 53 54 55 55 56 56 56 57 57 57 58 58 58 57 57 56 55 55 55 55 54 53 53 52 51 50 49 48 47 46
24 21 20 20 21 22 23 24 24 25 27 28 29 30 31 31 31 32 33 33 34 34 34 34 36 40 41 40 42 41 42 45 45 46 48 49 49 49 50 51 51 51 51 50 50 49 48 48 48 48 48 49 50 50 50 51 52 53 54 55 55 56 56 57 57 58 58 58 58 57 57 57 57 57 56 56 55 54 54 54 53 52 51 51 50 49
23 21 21 23 23 23 23 24 24 25 27 27 26 28 29 30 31 31 31 31 32 32 31 30 33 38 39 38 40 40 39 41 42 42 44 44 45 46 47 48 49 49 48 48 48 48 48 47 47 46 46 47 48 48 49 50 51 52 53 54 55 56 56 57 57 58 58 58 58 58 58 58 58 58 57 57 56 55 55 55 55 54 53 53 52 51
22 22 22 24 24 25 25 25 24 24 27 26 24 24 26 28 29 29 30 31 32 33 33 33 34 38 41 38 37 38 37 37 38 39 40 41 43 44 43 43 44 44 45 45 45 46 46 46 46 46 46 46 47 47 48 48 49 50 51 52 54 55 55 56 57 57 58 58 58 59 59 59 59 59 58 57 57 56 56 56 56 55 55 54 54 53
23 24 24 25 26 26 26 25 23 24 26 26 24 24 25 25 27 28 29 30 32 33 35 35 34 36 40 37 34 36 36 36 37 37 38 40 39 38 37 37 39 40 41 42 43 43 44 45 45 46 46 46 46 46 47 47 48 49 50 51 52 53 54 55 56 57 58 58 58 58 59 60 60 60 59 58 58 57 56 57 57 57 56 55 55 54
24 24 25 26 27 27 26 25 24 26 27 25 24 26 26 26 27 28 29 30 31 33 36 36 33 34 39 38 37 38 37 37 37 36 36 36 34 33 34 36 37 39 40 41 41 42 42 43 43 44 45 45 45 46 46 47 47 48 48 49 50 51 52 53 54 56 57 57 58 58 58 59 59 59 59 59 59 58 57 57 57 58 58 57 56 55
26 26 26 27 29 28 26 26 26 27 27 26 26 27 28 28 29 29 29 30 30 34 38 37 33 33 37 39 38 37 36 34 35 35 36 34 32 32 34 35 36 37 38 40 41 41 41 41 42 42 43 44 45 45 46 46 47 47 48 49 50 50 51 52 53 54 56 56 57 58 58 58 59 58 58 59 60 60 59 58 58 57 57 58 57 56
27 28 28 28 28 28 27 28 28 27 27 27 27 28 27 28 28 28 29 28 29 33 34 33 32 32 36 38 36 34 34 34 35 37 37 34 32 33 33 34 35 36 37 38 40 40 41 41 42 42 43 44 44 45 46 46 47 47 48 48 49 50 50 51 52 53 55 55 56 57 57 58 58 58 58 58 59 59 59 59 58 57 57 57 57 57
28 28 27 27 28 28 28 28 28 28 28 28 27 26 26 26 25 26 27 27 29 32 29 27 29 31 37 41 38 35 36 36 35 35 34 33 32 33 33 34 34 35 36 37 38 39 40 41 42 43 43 44 44 44 45 46 46 47 48 48 49 50 50 51 52 53 54 55 56 56 56 56 57 57 57 57 57 57 57 57 58 58 58 57 57 57
28 27 26 27 28 28 29 28 28 28 28 29 28 27 26 25 25 27 28 27 29 31 29 28 29 30 35 38 36 33 32 32 30 29 30 30 31 32 32 33 34 34 35 36 37 38 39 41 42 43 44 44 44 44 44 44 45 46 47 48 49 50 50 51 51 52 53 54 55 55 56 56 56 56 56 57 57 56 56 56 57 58 59 58 58 58
28 27 26 26 26 26 28 29 28 27 27 29 29 28 28 27 27 28 27 27 28 29 28 29 29 30 33 31 29 29 29 29 28 27 28 29 30 31 31 31 32 32 33 34 35 36 38 39 40 41 43 44 44 44 44 44 44 45 46 48 49 49 50 50 51 52 53 54 54 55 56 56 55 56 56 56 56 56 56 55 55 56 57 58 58 58
28 30 27 26 26 26 28 28 27 26 27 28 28 29 31 30 29 29 29 29 30 30 31 31 30 33 33 30 30 31 30 30 30 29 30 30 31 31 31 32 32 33 33 33 34 35 36 37 39 40 41 42 43 44 44 44 44 44 45 47 48 49 49 50 51 52 52 53 54 55 55 56 56 55 55 55 56 56 56 56 55 55 55 56 57 57
28 29 27 26 27 28 28 28 28 28 27 26 27 29 30 28 28 30 31 32 31 33 34 33 33 35 34 33 32 31 31 32 32 31 30 30 30 31 32 33 34 34 35 35 36 36 36 36 37 38 39 41 42 43 44 45 45 45 45 46 47 48 49 49 50 51 52 53 54 55 55 56 56 56 55 55 55 55 55 56 55 54 54 54 55 55
29 30 28 28 28 28 28 28 29 30 28 26 28 28 27 27 28 29 30 30 30 32 33 33 35 35 33 32 30 29 30 32 32 31 30 30 30 30 31 32 33 34 35 35 36 36 36 36 37 37 38 39 41 42 44 45 45 45 45 46 46 48 49 49 50 51 51 52 53 54 55 55 56 56 55 55 55 54 55 55 55 54 54 54 54 54
28 30 30 29 29 28 27 29 30 30 30 29 29 28 27 28 29 29 29 29 30 32 32 33 35 35 34 32 29 28 29 30 31 31 31 30 30 31 31 32 32 33 34 35 35 35 36 37 37 38 38 39 40 42 43 44 45 45 45 45 45 46 48 49 49 50 51 51 52 53 54 55 55 55 55 55 54 54 55 55 55 55 54 54 54 54
28 29 29 28 29 28 28 30 31 30 29 30 30 30 30 30 30 30 31 30 31 33 32 33 34 34 35 34 31 31 31 31 31 31 31 31 31 31 32 32 32 33 34 34 35 35 36 36 37 38 38 39 40 41 42 43 44 45 45 45 45 46 47 48 49 50 50 50 51 52 53 54 55 55 55 54 54 54 54 54 55 54 54 54 54 54
28 30 30 29 28 29 30 31 32 32 30 31 33 33 32 32 30 31 33 33 33 33 33 33 34 33 32 32 31 31 32 32 31 31 31 32 31 32 32 32 32 33 34 34 35 35 35 36 36 37 37 38 38 39 40 41 42 44 45 45 45 46 46 47 48 49 50 50 50 51 52 53 54 54 54 54 54 54 54 53 54 54 54 54 54 54
29 30 32 31 30 32 32 30 31 32 32 33 34 34 34 34 32 32 35 35 34 35 35 34 36 35 32 30 30 31 31 31 31 30 31 31 31 32 32 32 32 33 34 34 34 35 35 35 36 36 36 37 37 38 39 40 41 42 43 44 44 45 45 45 46 48 49 49 49 50 51 52 53 53 53 53 53 53 53 52 52 53 53 53 53 53
30 30 33 35 34 34 33 30 30 31 31 33 34 35 35 35 35 35 36 35 34 35 36 36 38 39 35 32 32 32 32 32 31 31 32 32 33 33 32 33 33 33 34 35 35 35 35 36 36 36 36 36 37 37 38 39 40 41 42 43 43 44 44 44 45 46 47 48 49 49 49 50 51 52 52 52 52 52 52 51 51 51 52 53 53 52
30 31 34 36 35 34 34 33 33 32 32 34 35 35 34 35 36 36 36 36 34 36 37 37 39 40 36 34 35 34 34 35 35 35 34 34 34 34 34 34 34 35 36 36 36 36 36 37 37 37 37 37 37 37 37 38 39 39 40 41 42 43 44 44 44 44 45 47 47 48 48 49 50 50 51 51 51 51 51 51 50 50 51 52 52 52
30 32 34 34 34 33 33 34 34 34 34 36 36 35 35 36 36 35 35 35 36 39 39 38 40 39 34 32 34 34 35 37 38 38 38 37 36 35 35 36 37 39 39 39 38 38 38 38 38 37 37 37 37 37 37 37 38 38 39 39 40 42 43 43 43 44 44 45 46 47 47 47 48 49 50 50 50 50 50 50 50 49 50 51 52 51
33 34 33 33 34 35 34 33 34 35 35 36 36 37 37 37 36 35 35 36 37 39 40 40 41 40 38 37 37 37 37 39 40 40 40 40 39 38 39 39 41 41 41 41 41 40 40 39 38 38 38 38 38 38 37 37 37 37 37 38 38 39 40 42 42 43 43 44 45 46 46 46 47 48 48 48 49 49 49 49 49 49 49 50 51 51
34 35 36 36 38 38 37 36 36 35 34 35 36 38 38 37 37 36 36 38 38 38 40 42 40 42 44 44 43 42 42 43 43 42 42 41 40 39 40 41 42 42 42 41 41 42 42 41 40 39 39 39 39 38 38 37 37 37 37 37 37 37 38 39 41 42 42 43 44 45 46 46 47 47 47 47 48 48 48 48 48 49 49 49 50 51
33 36 38 40 42 42 41 41 39 37 36 37 38 38 38 38 38 38 39 41 39 37 39 39 38 43 46 45 43 44 43 43 43 42 42 40 39 38 39 40 42 41 41 41 40 40 41 41 41 41 40 40 40 39 38 38 37 37 37 36 36 36 36 37 38 40 41 42 43 44 45 46 46 47 47 47 47 47 47 47 48 48 48 48 49 50
33 34 35 37 40 41 41 42 41 39 38 39 39 39 39 39 39 40 41 42 40 39 39 38 39 43 45 42 42 43 41 42 42 41 39 38 38 38 39 40 40 39 39 39 39 39 39 39 40 40 40 40 39 39 38 38 38 37 37 37 36 35 35 35 36 38 39 41 41 42 44 45 46 46 46 46 46 46 47 47 47 47 48 48 49 49
31 32 33 35 37 38 39 40 41 41 41 41 41 42 42 41 41 41 41 41 41 41 41 40 43 44 42 41 41 40 39 40 40 39 39 39 38 38 38 39 39 38 38 38 38 38 39 39 38 38 38 38 39 39 39 39 38 38 37 37 36 35 34 34 34 35 37 39 40 41 42 44 45 45 46 46 46 46 46 46 47 47 47 48 48 49
32 33 33 34 35 37 37 38 39 41 42 43 43 43 43 42 41 40 40 40 40 41 41 42 45 44 41 40 40 39 38 37 37 38 40 40 38 37 38 39 38 37 37 37 37 37 37 38 38 38 38 38 39 40 39 39 39 39 38 38 37 36 35 34 33 34 35 37 38 39 40 41 43 44 45 45 46 46 45 45 46 46 47 47 48 48
34 35 34 33 35 36 35 36 39 40 42 44 44 44 43 42 41 40 40 40 41 41 41 42 43 42 39 38 39 39 37 36 38 39 39 38 37 36 38 38 37 37 36 36 36 35 35 36 37 38 39 39 39 38 38 38 38 39 39 38 38 37 36 34 33 33 33 35 36 37 38 39 41 42 43 44 45 45 45 45 45 45 46 47 47 48
36 36 34 34 36 37 36 37 39 39 40 42 41 41 42 42 43 43 43 43 43 42 41 41 41 40 39 38 38 39 37 37 38 37 36 36 36 36 38 38 37 36 35 35 35 35 34 34 34 35 36 37 38 37 37 37 37 38 38 38 38 37 36 35 34 32 32 33 34 35 36 37 38 40 41 42 43 45 45 45 45 45 45 46 46 47
36 36 35 35 35 37 37 38 39 39 40 39 35 35 38 40 42 44 44 43 44 42 41 42 42 41 39 38 38 38 38 37 36 35 34 34 35 36 37 38 37 36 35 34 34 34 33 33 33 33 33 34 35 36 37 37 36 37 37 37 37 37 37 36 35 33 32 32 32 33 34 35 36 37 39 40 41 43 44 44 44 44 45 45 45 46
36 36 36 36 36 36 36 36 37 37 37 37 35 35 38 39 41 42 43 43 43 42 42 43 42 41 39 37 37 38 38 36 34 33 33 34 35 35 36 37 37 36 35 34 33 33 32 32 32 32 31 31 32 33 35 36 36 36 35 35 35 36 35 35 35 34 33 32 32 32 32 33 34 35 36 38 39 40 42 43 44 43 44 44 45 45
38 37 37 37 37 36 35 36 37 36 34 35 35 36 37 37 38 39 41 41 40 40 41 42 42 40 38 37 37 37 36 34 32 32 33 34 35 35 35 36 37 36 35 33 33 32 32 31 31 31 31 30 30 31 32 34 35 35 34 34 34 34 34 33 33 33 33 33 32 31 31 32 33 33 34 35 37 38 40 41 43 43 43 44 44 45
38 37 36 36 36 34 35 38 40 40 39 38 36 34 34 35 35 35 37 39 38 38 39 39 40 39 37 37 37 36 32 31 31 32 33 33 34 34 35 36 36 35 33 32 32 31 31 30 30 30 29 29 29 30 30 31 33 34 33 33 33 32 32 32 32 32 32 33 33 32 31 31 31 32 33 33 35 36 37 39 41 42 43 43 44 44
36 36 35 35 34 33 34 36 36 37 38 38 37 37 36 37 38 36 38 41 39 37 37 37 37 38 36 36 36 33 30 31 33 32 31 31 32 34 35 35 34 32 31 31 31 30 30 29 29 29 29 28 28 29 29 29 31 32 33 32 32 32 32 32 31 31 31 32 32 32 32 31 30 31 32 32 33 34 36 37 39 40 42 43 43 44
34 35 35 35 35 34 33 33 32 33 35 35 36 36 36 38 38 37 39 41 38 35 35 35 36 37 36 36 34 31 30 32 33 32 30 30 31 32 33 32 31 30 30 30 30 29 28 28 28 28 27 27 27 28 28 28 29 31 31 31 31 32 32 32 32 31 31 31 32 32 32 32 31 31 31 32 33 33 34 36 37 39 40 42 43 43
31 31 32 33 34 33 33 33 31 32 32 33 34 34 34 34 35 36 38 37 33 32 33 33 34 35 35 34 32 30 31 33 32 31 30 29 29 30 30 29 29 29 29 28 28 28 27 27 27 27 26 26 26 27 27 27 28 29 30 30 30 31 32 33 33 32 32 32 32 32 33 33 33 32 31 32 33 33 33 34 36 37 39 40 41 42
27 27 28 30 31 31 32 31 30 30 31 31 32 32 30 29 30 34 36 32 28 30 32 33 34 34 33 31 29 29 31 32 31 29 27 27 27 27 27 27 27 27 26 26 26 26 26 26 26 26 25 25 25 26 26 26 27 28 28 29 29 30 31 32 33 33 33 32 32 33 33 33 33 33 32 32 32 33 33 34 35 36 37 39 40 41
25 25 26 28 28 29 29 29 29 28 27 26 28 28 27 26 29 32 33 30 28 28 29 30 31 31 29 29 29 30 31 31 29 27 25 25 26 26 26 26 25 25 25 25 25 25 25 24 24 24 24 24 24 25 25 25 26 27 28 28 29 30 31 32 32 33 33 33 33 33 33 33 33 33 32 32 32 32 33 33 34 35 36 38 39 40
24 24 25 26 26 26 26 26 25 24 22 21 22 22 23 26 27 27 28 28 27 27 26 25 26 27 27 28 30 32 32 29 27 26 24 25 26 26 26 26 25 25 24 24 24 24 24 23 23 23 23 23 23 24 24 24 25 26 27 28 28 29 30 31 31 32 33 33 32 32 32 32 33 32 32 32 32 32 32 32 33 34 35 36 38 39
24 24 24 25 24 24 24 24 22 21 19 19 19 19 20 23 23 22 23 25 25 25 25 25 25 26 28 29 31 32 31 28 26 25 25 25 25 25 25 25 24 24 23 23 23 23 23 23 22 22 22 22 22 23 23 23 24 25 27 28 28 29 30 30 30 31 32 32 32 32 32 31 32 32 32 32 32 32 32 32 32 33 34 35 37 38
23 23 24 24 24 24 24 24 21 19 18 18 17 17 18 20 21 21 21 22 22 23 23 25 26 27 28 29 30 29 29 27 26 26 26 25 25 24 24 23 23 22 22 22 22 22 22 22 21 21 21 21 22 22 23 23 23 24 26 28 28 29 29 30 30 31 31 32 32 32 31 31 31 32 32 31 32 32 32 32 32 32 33 34 35 37
20 21 22 23 23 24 24 23 20 19 19 18 16 16 17 18 19 19 20 21 22 23 23 23 25 25 25 26 27 27 27 28 27 27 26 25 24 23 23 22 22 21 21 21 21 21 21 21 21 21 21 21 21 22 22 22 23 24 25 27 28 29 29 30 30 31 31 32 32 32 32 31 31 31 31 31 32 32 32 32 32 32 33 33 34 36
20 21 22 21 21 20 20 18 17 18 19 17 16 17 17 17 18 19 19 21 21 21 22 22 21 21 21 22 23 24 25 25 26 25 24 24 23 22 22 21 21 21 20 20 20 21 21 20 20 20 20 21 21 22 22 23 23 24 25 26 27 28 29 29 30 30 31 32 32 32 32 32 32 32 32 32 32 32 33 33 33 32 33 33 34 34
20 20 20 20 19 19 18 16 16 19 18 15 14 16 16 17 18 19 19 20 20 19 19 19 18 18 18 18 19 20 20 22 23 23 22 22 22 21 21 21 20 20 19 19 19 20 20 20 20 20 20 21 21 22 23 23 23 24 25 25 26 28 29 29 30 31 31 32 32 32 33 33 33 32 32 32 32 32 33 33 33 33 33 33 34 34
21 20 18 18 19 20 19 17 17 18 18 15 14 16 16 16 17 18 18 18 18 17 17 17 16 15 15 15 16 17 18 19 20 20 20 19 19 19 19 19 19 18 18 19 19 19 19 20 20 20 21 21 22 22 23 23 23 23 24 24 25 26 28 29 30 31 32 32 32 32 32 33 33 33 32 32 32 33 33 34 34 34 34 33 34 34
20 19 19 20 20 20 19 18 17 18 19 17 16 17 16 16 17 16 16 15 15 15 15 15 14 13 13 13 13 14 16 16 17 17 17 17 17 18 18 17 17 17 17 18 18 18 19 19 20 20 21 21 21 22 22 23 23 23 24 24 24 25 26 28 29 30 31 32 32 33 33 34 34 34 33 32 32 33 34 34 34 34 34 34 34 34
18 19 20 21 22 21 19 18 17 18 19 19 18 17 16 15 15 15 14 13 13 13 13 13 12 11 11 11 11 12 13 14 15 15 15 15 16 16 15 15 16 16 16 17 17 18 18 19 19 20 21 21 21 22 23 23 24 24 24 24 24 24 25 26 27 28 29 30 31 32 33 34 34 34 34 33 33 33 33 34 34 34 35 35 34 34
Wind_Direction
255 253 252 252 252 249 247 247 248 250 250 249 249 249 249 249 248 247 246 246 247 248 247 246 248 248 248 248 247 246 246 246 246 246 246 245 245 245 246 247 248 249 249 248 247 248 248 247 247 247 247 247 246 246 245 245 245 245 245 245 245 245 245 245 245 245 244 244 244 245 245 245 245 246 247 247 247 247 248 248 248 248 249 249 250 250
257 256 255 253 252 251 249 249 250 251 250 250 250 250 250 250 250 249 249 248 247 247 248 248 249 249 249 249 248 247 246 245 245 246 247 247 247 246 246 247 247 248 249 249 248 248 247 247 247 247 247 246 246 246 246 246 246 246 246 246 246 246 245 245 245 245 245 245 245 245 245 246 246 246 246 247 247 247 248 247 247 248 248 249 249 249
257 259 258 254 252 251 251 251 251 251 251 251 251 251 251 251 251 250 249 249 247 247 249 250 251 250 249 249 248 247 247 246 245 246 247 247 247 247 247 247 247 248 248 249 249 249 248 247 247 247 247 246 246 247 246 246 246 246 246 246 246 246 246 246 246 245 245 245 245 246 246 246 246 246 247 247 247 247 247 247 248 248 248 249 248 248
258 260 260 256 253 251 252 251 251 252 252 251 251 251 251 251 252 250 249 249 249 249 252 254 254 252 250 250 248 247 247 247 246 245 246 247 247 247 247 247 248 248 248 249 249 249 249 248 247 246 246 247 247 247 247 247 247 246 246 246 246 246 246 246 246 246 246 246 246 246 246 246 247 247 247 247 247 247 248 248 248 249 249 249 249 248
260 261 259 257 253 252 253 252 251 253 253 252 251 252 253 253 253 254 254 254 254 253 254 255 256 253 250 249 249 248 247 247 246 246 246 246 247 247 247 247 248 248 249 249 249 249 249 249 249 248 248 248 248 248 248 247 247 247 247 246 246 246 246 246 246 246 246 246 246 247 247 247 247 247 247 247 247 247 247 248 248 248 248 248 248 248
262 262 257 255 254 252 253 254 253 253 254 254 253 253 254 255 255 256 257 257 257 255 253 252 253 252 249 247 248 249 247 247 247 247 247 247 246 247 247 247 247 248 248 248 249 249 250 250 250 250 250 249 249 248 248 249 248 248 247 247 247 247 247 246 246 246 246 246 246 246 246 247 247 247 247 247 247 247 247 247 247 247 247 247 247 247
263 262 257 255 255 254 255 257 256 254 256 257 255 254 254 255 256 256 256 255 254 255 253 251 254 254 251 249 249 249 248 248 248 248 248 248 248 247 246 246 247 247 247 247 248 248 249 250 250 251 251 250 250 250 250 250 249 249 249 248 248 248 247 247 247 247 247 246 246 246 246 247 247 247 247 247 248 248 247 247 247 247 247 246 246 247
260 260 259 257 257 256 257 260 257 253 256 258 257 256 256 255 255 254 255 254 255 258 257 254 254 255 253 250 248 247 248 248 249 250 249 249 249 248 247 247 247 247 247 247 247 248 248 249 250 250 250 251 251 251 251 250 250 250 250 249 249 248 248 247 247 247 247 247 246 246 247 247 247 247 248 248 248 248 247 247 247 247 247 246 246 246
262 261 259 258 258 258 259 261 258 252 254 258 259 259 258 257 257 256 256 256 258 260 258 253 252 254 253 247 245 247 248 249 251 252 252 251 248 246 245 246 246 246 246 246 246 247 248 248 249 249 249 250 250 251 251 251 250 250 249 249 249 249 248 248 247 247 247 246 246 246 246 247 247 248 248 248 248 247 247 247 247 247 247 246 246 246
264 263 262 260 258 260 260 260 257 253 254 258 259 260 260 260 260 259 258 259 260 258 256 253 250 253 254 248 246 249 251 253 254 253 253 250 246 244 245 246 246 246 246 245 245 246 246 247 248 248 248 249 249 250 250 251 251 250 250 249 249 249 249 248 248 247 247 246 246 246 246 246 247 247 248 248 248 248 247 247 246 246 247 247 246 246
264 264 264 261 258 260 262 260 258 255 256 259 260 260 262 262 261 260 259 259 259 256 255 254 248 250 255 252 249 250 251 254 255 254 252 248 246 247 248 248 248 247 246 245 244 245 246 246 247 248 249 249 249 249 250 250 250 250 250 249 249 249 249 248 248 248 247 246 246 246 246 246 246 247 247 247 247 247 247 246 246 246 246 246 246 246
263 262 262 261 258 258 260 259 258 257 257 258 258 259 262 263 260 259 257 255 256 257 257 254 246 245 251 252 250 251 253 256 256 255 252 249 248 249 248 249 249 248 247 245 245 246 248 249 250 251 251 250 250 250 250 250 250 250 250 250 250 250 249 249 248 248 247 247 246 246 246 246 246 246 246 246 246 246 246 246 245 245 245 245 245 245
263 259 259 261 259 255 256 258 257 257 256 254 254 255 258 261 260 258 256 253 254 257 257 252 245 246 251 253 255 256 258 258 257 254 251 248 248 248 248 250 249 249 249 248 248 249 250 251 252 252 252 251 250 250 251 251 250 250 250 250 251 250 250 249 248 248 247 246 246 246 246 246 246 246 246 246 246 246 246 246 245 244 244 244 244 244
264 262 259 260 260 254 252 255 255 254 253 250 249 249 252 256 258 258 257 256 257 257 255 250 248 252 255 255 257 258 258 258 256 252 249 247 247 249 250 251 250 250 251 252 252 253 252 252 252 252 252 250 249 250 251 251 251 251 250 251 251 251 251 250 249 248 247 247 246 246 246 246 245 245 245 246 246 245 245 245 245 244 244 244 244 244
263 263 258 256 259 255 250 253 256 255 254 252 250 249 251 253 256 258 258 258 260 261 257 250 248 253 256 256 256 255 254 255 254 250 249 249 248 250 251 252 253 254 254 255 255 255 255 254 254 253 252 250 250 251 251 252 253 253 252 251 251 251 251 251 250 249 248 247 246 246 246 245 245 245 245 245 245 245 245 245 245 244 244 244 244 244
261 262 260 258 261 257 252 254 255 255 255 254 250 249 252 255 256 259 262 261 263 264 259 252 253 256 257 256 254 254 255 255 254 253 252 252 251 252 254 255 256 257 257 258 258 258 257 256 255 255 253 252 252 253 253 254 254 255 254 253 252 252 252 252 251 250 249 248 247 246 246 245 245 245 245 245 245 245 245 245 245 244 244 244 244 244
263 264 262 260 260 257 255 256 253 253 256 253 248 249 254 257 256 257 261 262 261 261 258 254 256 258 259 258 252 251 254 255 255 255 253 252 253 254 256 257 258 258 258 259 259 259 259 258 257 256 255 254 254 254 255 256 256 256 256 255 254 253 253 252 252 251 250 249 248 247 246 246 245 245 245 245 245 245 245 244 244 244 243 243 244 244
264 266 263 259 259 258 258 259 256 255 255 252 250 252 255 257 256 255 260 260 256 258 258 254 255 256 257 257 252 249 251 252 253 253 252 253 255 256 257 257 258 258 258 258 258 259 259 259 259 258 257 256 255 255 256 256 257 256 256 256 255 254 254 253 253 252 251 251 249 248 247 246 246 245 245 245 245 245 244 244 244 244 243 243 243 243
264 266 264 259 259 259 259 258 256 254 253 253 255 256 255 255 255 253 254 258 256 258 260 256 254 254 253 254 253 250 249 250 251 251 252 254 256 256 257 257 258 258 258 258 258 258 259 259 260 259 259 259 258 257 257 257 256 256 256 256 255 255 254 253 253 252 252 252 250 249 248 247 246 246 245 245 245 245 245 244 244 244 243 243 242 243
262 264 265 262 260 261 258 255 254 253 252 254 256 256 254 255 257 255 253 256 257 258 260 257 254 253 253 253 253 251 250 250 251 251 252 254 255 256 257 257 258 258 258 259 258 259 259 260 260 260 260 260 260 259 258 257 257 257 257 257 257 257 256 255 254 253 252 252 251 251 249 248 247 246 246 245 245 245 245 245 244 244 243 242 242 242
261 261 263 263 261 259 257 255 254 253 252 251 251 251 252 253 256 259 257 255 256 258 259 258 256 254 254 254 252 249 250 251 251 251 251 252 253 254 255 257 258 258 258 258 258 258 259 260 260 260 260 260 260 260 259 259 258 258 258 258 258 258 258 257 256 254 252 252 252 251 251 249 248 247 246 245 245 245 245 245 244 244 243 243 242 241
261 261 260 261 259 256 257 259 259 257 254 252 251 251 252 252 253 257 257 254 254 256 257 258 258 256 253 253 253 249 250 251 251 252 252 252 253 253 255 256 258 259 258 257 257 257 258 259 260 260 259 260 260 261 261 261 260 260 260 259 259 258 258 258 257 255 254 252 251 251 251 250 249 247 247 246 245 245 245 244 244 244 243 243 242 241
261 263 260 260 259 259 260 261 260 260 259 256 255 255 254 252 251 253 256 255 254 255 257 259 259 257 253 252 253 251 250 252 252 253 254 255 255 255 257 258 260 261 260 258 257 257 257 258 259 259 259 260 261 261 261 262 262 262 262 261 259 259 259 259 257 256 254 253 252 251 251 250 249 248 247 246 245 245 244 244 244 243 243 243 242 241
261 262 261 262 263 262 262 260 258 259 259 257 256 255 254 253 252 253 256 258 257 255 255 258 258 257 255 254 254 253 251 253 254 255 256 257 257 257 258 260 262 263 262 260 259 258 259 259 259 258 259 260 260 260 261 261 262 262 262 262 261 260 260 259 258 257 255 254 253 252 250 249 248 247 247 246 245 245 244 244 244 243 242 242 242 241
261 260 259 261 262 261 259 258 256 256 257 257 257 255 254 253 253 255 256 256 256 253 253 256 257 257 256 256 255 252 251 252 254 255 257 257 256 258 260 262 264 265 263 261 261 261 261 261 260 259 259 260 260 260 260 261 261 261 262 262 261 261 260 260 259 258 256 254 253 252 250 250 248 247 247 246 245 245 244 244 243 242 241 241 241 241
260 258 255 256 259 259 257 256 256 257 257 257 256 254 253 252 250 252 253 252 253 253 252 253 257 258 258 256 255 253 253 255 256 257 259 258 257 260 263 264 266 265 263 262 262 262 263 262 262 261 261 261 261 261 260 260 261 261 262 262 261 261 261 260 259 259 257 255 253 251 250 249 248 247 247 246 245 244 244 243 243 242 241 240 240 240
259 258 255 253 255 257 258 258 259 259 256 254 253 252 250 249 248 249 250 250 253 255 254 253 256 259 258 256 257 257 258 259 259 260 261 260 260 262 264 265 265 263 263 263 263 263 263 263 262 262 262 263 262 261 261 260 260 260 261 262 262 262 261 260 259 259 258 256 253 251 250 249 248 247 247 246 245 244 243 243 243 242 241 240 239 239
258 258 256 256 257 258 260 261 260 258 255 253 253 251 250 249 248 247 248 250 252 255 255 254 253 256 258 257 258 259 259 260 260 260 260 260 261 262 264 265 265 263 263 263 264 264 264 263 263 262 263 263 262 261 261 261 260 260 261 262 263 262 262 261 260 258 258 257 254 252 250 249 248 247 246 245 245 244 243 242 242 241 240 239 239 238
257 259 259 259 260 261 262 262 261 259 257 256 254 253 251 249 247 247 248 250 251 252 255 255 253 254 258 258 258 258 258 259 259 258 258 259 260 262 264 265 264 264 264 263 263 264 264 263 263 262 262 262 262 262 262 262 261 261 261 262 263 263 263 262 260 259 257 256 255 253 251 249 248 246 246 245 244 243 242 242 241 241 240 239 238 238
257 260 261 262 263 263 262 261 260 259 259 257 256 255 253 251 249 248 250 251 250 252 255 257 256 256 258 259 259 260 259 258 258 258 258 258 259 261 263 262 262 263 264 264 264 263 263 262 262 262 261 261 263 264 263 263 262 261 261 262 262 263 264 263 261 259 257 256 255 254 252 250 248 247 245 244 244 243 242 241 241 240 239 238 237 237
260 263 264 264 265 263 261 261 261 260 260 259 256 254 253 252 250 249 250 251 252 253 256 257 257 258 260 260 261 262 260 259 259 259 258 257 258 260 260 259 259 261 262 263 264 264 263 262 261 261 261 262 264 264 263 263 263 261 260 261 261 262 263 263 262 260 258 256 255 254 252 250 248 247 246 244 243 242 242 241 241 240 239 238 237 236
261 263 263 263 264 262 260 261 262 262 262 260 256 253 252 251 250 250 250 251 251 253 255 255 257 259 261 262 262 260 258 259 260 259 258 257 256 257 256 256 257 260 261 263 264 264 263 262 262 262 262 262 263 263 262 263 263 262 261 261 261 260 261 262 262 261 259 258 256 254 253 251 248 247 246 244 243 242 241 241 240 240 239 238 237 236
260 262 261 261 263 264 261 261 263 264 262 258 255 253 252 251 252 252 251 251 251 252 253 254 257 261 262 261 260 259 258 259 259 259 258 257 255 255 254 254 256 258 261 262 263 263 262 262 263 264 263 262 261 261 262 262 262 262 262 261 260 259 260 260 261 261 260 258 257 255 253 252 249 247 246 245 243 242 240 240 240 239 239 238 237 236
258 258 259 259 262 264 263 263 264 261 259 258 256 253 252 252 252 253 253 252 251 251 252 255 258 261 261 259 259 259 260 260 259 258 256 255 254 254 253 253 254 256 259 261 261 261 261 262 263 265 265 264 262 261 260 261 261 262 261 261 260 259 259 259 259 259 259 258 257 255 254 252 251 248 246 245 244 242 240 239 239 239 238 238 237 236
256 256 258 258 260 262 263 262 260 258 258 260 257 254 253 254 253 254 254 253 252 251 252 254 256 258 259 259 258 258 259 260 259 257 256 254 253 252 252 253 254 255 257 258 259 259 260 262 264 265 266 266 265 264 261 260 260 260 260 260 260 259 259 258 258 257 257 257 256 256 254 253 251 250 248 245 244 242 240 239 238 238 237 237 237 236
256 257 258 259 259 260 260 257 256 260 264 264 259 255 254 253 252 253 254 253 252 252 252 253 254 256 257 257 257 257 258 258 258 257 256 254 252 250 251 252 253 254 254 255 256 258 259 261 263 265 267 267 267 267 265 261 259 258 259 259 258 258 258 258 257 256 255 255 255 255 254 253 251 250 249 247 244 242 240 239 238 237 236 236 236 236
255 256 257 257 257 257 258 258 259 263 264 261 258 256 254 252 252 253 255 255 252 252 253 253 253 253 255 256 257 256 256 257 258 258 257 255 252 249 250 252 252 252 251 252 254 257 259 261 263 265 267 268 268 268 267 264 259 257 257 256 255 255 256 257 257 256 255 254 254 254 254 253 251 250 249 248 246 243 241 239 238 236 235 235 235 235
253 253 254 255 255 255 257 259 261 262 261 259 258 256 254 254 253 253 256 257 253 250 251 251 251 252 254 256 256 254 254 256 257 257 256 254 250 248 249 250 250 249 249 250 253 255 257 259 261 263 266 267 268 268 268 265 261 258 257 256 254 253 254 255 256 256 255 254 253 253 253 251 250 249 248 247 246 245 243 240 238 237 235 234 234 234
252 253 253 253 254 254 256 258 258 259 261 262 261 258 255 254 254 254 256 255 251 249 249 250 251 252 254 255 254 251 252 255 255 255 255 252 249 247 247 247 246 246 247 249 252 254 256 258 260 262 264 267 269 269 269 266 262 258 258 257 254 253 253 253 254 254 255 255 254 253 252 251 250 249 247 246 246 245 244 242 239 237 236 234 234 233
252 252 251 250 251 251 253 256 258 260 263 264 264 261 257 254 252 251 251 251 249 248 251 251 251 252 253 253 252 250 251 253 255 255 253 249 246 246 244 242 242 243 245 247 250 253 255 257 259 261 263 266 269 270 269 267 263 259 258 257 255 253 253 253 253 253 254 254 253 252 251 251 251 250 248 247 246 245 244 242 240 238 237 235 234 233
251 250 249 248 248 249 251 255 259 261 264 265 264 260 256 254 249 246 249 253 253 251 251 251 250 251 252 250 250 251 251 252 253 252 248 244 243 242 240 239 240 241 243 246 249 252 254 256 258 260 262 266 269 270 270 268 264 260 259 258 256 254 254 253 253 253 253 253 253 252 251 250 251 251 249 248 246 245 244 243 241 239 237 236 234 233
251 250 248 247 247 249 252 257 261 263 264 265 264 259 253 248 247 250 254 258 256 252 251 250 250 251 251 248 247 250 250 249 248 246 243 240 238 236 236 239 240 241 244 246 249 252 254 256 257 259 262 265 268 270 270 269 265 262 259 258 257 256 255 254 253 252 253 253 253 252 251 250 251 251 250 249 247 246 244 243 241 240 238 236 235 233
250 249 247 245 246 250 252 254 258 261 263 265 265 260 250 246 251 260 262 259 256 256 255 252 250 249 248 247 247 247 247 246 243 240 238 236 235 234 236 238 240 242 244 246 249 252 254 256 258 260 262 265 268 270 270 269 266 263 260 259 258 257 255 255 254 253 253 253 253 252 251 251 251 251 250 249 248 247 245 243 242 240 239 237 235 233
248 247 248 247 246 249 251 252 255 259 262 263 262 258 253 253 259 266 264 259 258 259 256 251 249 248 248 248 247 246 244 241 239 237 235 234 234 235 236 238 240 242 244 246 249 251 254 257 259 260 263 266 268 270 270 269 267 265 261 260 260 258 256 255 254 254 254 254 253 252 251 250 250 249 249 249 248 246 245 244 243 241 239 237 235 233
248 248 251 252 250 250 252 254 254 258 260 259 259 262 263 264 267 268 266 263 262 260 256 253 251 253 252 250 247 244 241 238 236 235 234 233 233 234 236 238 239 241 243 246 249 252 255 257 259 260 263 267 269 271 271 270 268 266 264 262 261 260 258 256 254 254 254 254 254 252 251 250 249 248 248 248 247 245 245 244 243 241 240 238 236 234
254 257 256 255 253 253 253 253 252 256 258 256 257 265 270 271 272 270 267 264 263 263 263 259 256 256 253 247 244 243 241 237 235 234 233 232 231 232 234 237 238 240 243 246 249 253 256 258 260 261 263 267 270 271 272 271 269 267 266 265 263 261 259 257 255 254 255 254 253 252 252 250 248 247 246 247 246 244 243 243 242 242 240 239 237 235
256 260 256 251 250 251 249 246 248 254 255 253 258 267 274 278 278 274 268 265 264 266 266 264 261 257 250 244 243 242 239 235 231 230 230 230 229 231 233 235 237 240 243 247 251 255 257 258 260 262 264 267 270 271 272 272 271 270 269 267 265 263 261 259 256 254 255 255 254 253 252 250 249 247 246 246 245 244 243 242 241 241 240 239 238 236
253 256 251 245 246 249 244 245 257 258 249 246 261 271 274 277 280 277 271 268 265 265 265 265 261 253 247 247 247 241 234 230 227 224 225 226 227 230 232 234 237 240 244 248 252 255 257 259 261 263 266 269 271 272 274 274 273 273 273 271 268 265 262 260 258 256 255 255 254 253 252 251 250 248 246 245 245 243 242 241 241 240 239 239 238 237
251 251 249 245 247 250 247 253 267 262 245 245 268 277 274 276 278 277 274 271 267 265 266 265 258 249 246 249 247 236 227 225 223 220 220 223 225 227 230 233 237 241 245 249 253 256 258 261 262 265 267 270 271 273 275 275 275 277 276 274 271 268 265 262 260 258 256 256 254 253 252 251 250 249 247 245 244 242 241 240 240 240 239 238 238 237
250 247 250 249 247 249 251 257 264 258 247 251 268 275 273 275 276 274 274 274 270 266 264 262 257 248 244 244 240 228 220 219 219 217 216 219 222 224 228 232 236 241 247 251 253 257 260 262 264 267 269 271 273 274 276 276 277 279 278 276 274 271 268 266 263 259 258 257 255 254 253 251 249 249 248 246 244 243 241 240 240 239 238 237 238 238
252 250 253 251 248 250 255 259 260 254 247 252 263 268 268 270 270 269 269 270 268 264 260 257 253 246 237 231 228 222 216 214 214 213 213 216 221 225 228 233 237 242 248 253 256 260 263 265 267 269 271 273 274 276 277 278 279 280 280 278 275 272 270 268 264 261 259 258 257 255 253 250 248 248 247 246 244 243 242 240 239 238 237 236 237 238